Weather in Zermatt

Switzerland     46°01′21″N   7°45′02″E
temp.,
°C
wind,
m/s
gust,
m/s
humid.,
%
clouds,
%
prec.,
mm/h
press.,
hPa
HPBL,
m
12 may, wed
wed1223:00−5nw4497100 5.9 1013176
02:00−7nw549796 6.8 101553
05:00−10nnw439987 0.3 101728
08:00−8nnw439588 0.3 1015157
11:00−4nw2183100 0.0 1011267
14:00−3ssw1193100 0.2 1009395
17:00−2nnw119292 0.8 1008386
20:00−4nw3295100 1.4 1010126
13 may, thu
thu1323:00−9nw339898 0.1 101628
02:00−10nnw339776 0.1 101625
05:00−9nnw439985 0.0 1013133
08:00−7nnw439779 0.1 1011210
11:00−4nw329193 0.1 1008527
14:00−4nnw229692 0.5 1007481
17:00−4nw339598 1.3 1006391
20:00−6nw339684 2.1 1010172
14 may, fri
fri1423:00−11nnw339882 0.1 101522
02:00−13nnw339227 0.1 101617
05:00−14nnw22603 0.0 101611
08:00−8nnw226863 0.0 101249
11:00−5n115491 0.0 1009790
14:00−4nne2173100 0.1 1008842
17:00−3nnw3280100 0.3 1008736
20:00−5nw3396100 1.1 1010229
15 may, sat
sat1523:00−9nw4398100 0.6 101631
02:00−10nw339976 0.6 101727
05:00−12nw339534 0.0 101918
08:00−7nw228697 0.0 101475
11:00−4wsw116395 0.0 1011575
14:00−3wsw2282100 0.1 1010680
17:00−3w2189100 0.3 1011392
20:00−3wnw2296100 1.1 1011219
16 may, sun
sun1623:00−4nw2296100 1.5 101357
02:00−4nw2395100 2.3 101249
05:00−5wnw439887 0.4 101331
08:00−2wnw349574 0.4 1012194
11:00−1wnw3310076 0.0 1012265
14:00+1w2210085 0.1 1011238
17:000w22100100 0.3 1011213
20:000ssw33100100 1.3 1010134